Regional Weather Roundup
Issued by NWS

Home | Current Version | Previous Version | Graphics & Text | Print | Product List | Glossary On
Versions: 1 2 3 4 5 6 7 8 9 10 11 12 13 14 15 16 17 18 19 20 21 22 23 24 25 26 27 28 29 30 31 32 33 34 35 36 37 38 39 40 41 42 43 44 45 46 47 48 49 50
000
ASUS45 KCYS 241210
RWRWY

WYOMING REGIONAL WEATHER ROUNDUP
NATIONAL WEATHER SERVICE CHEYENNE WY
600 AM MDT FRI MAR 24 2017

NOTE:  "FAIR" INDICATES FEW OR NO CLOUDS BELOW 12,000 FEET
WITH NO SIGNIFICANT WEATHER AND/OR OBSTRUCTIONS TO VISIBILITY.

WYZ001-241300-
YELLOWSTONE NATIONAL PARK

CITY           SKY/WX    TMP DP  RH WIND       PRES   REMARKS
LK YELLOWSTONE   N/A     15  13  91 CALM      30.16R
6HR MIN TEMP:  15; 6HR MAX TEMP:  24;

W YELLOWSTONE  NOT AVBL

$$
WYZ002>013-054>058-071-098>099-241300-
NORTHERN WYOMING

CITY           SKY/WX    TMP DP  RH WIND       PRES   REMARKS
JACKSON        FAIR      21  19  93 N8        30.16R WCI  12
CODY           FAIR      35  28  75 SW9       30.10R WCI  28
GREYBULL       FAIR      32  31  96 W5        30.11R WCI  27
6HR MIN TEMP:  31; 6HR MAX TEMP:  39;

WORLAND        FAIR      31  31 100 CALM      30.11R
6HR MIN TEMP:  31; 6HR MAX TEMP:  37;

SHERIDAN       FAIR      29  25  85 SW3       30.08R
6HR MIN TEMP:  29; 6HR MAX TEMP:  41;

BUFFALO        FAIR      37  27  67 W8        30.09R WCI  31
6HR MIN TEMP:  34; 6HR MAX TEMP:  42;

GILLETTE       FAIR      36  33  89 CALM      30.07R
6HR MIN TEMP:  33; 6HR MAX TEMP:  37;

HULETT         FAIR      32  32 100 S7        30.08R WCI  26
NEWCASTLE      FAIR      36  32  87 NW12      30.06R WCI  27

$$
WYZ014>020-022>026-101>103-241300-
CENTRAL WYOMING

CITY           SKY/WX    TMP DP  RH WIND       PRES   REMARKS
BIG PINEY      FAIR      24  21  88 NE7       30.15R WCI  16
6HR MIN TEMP:  24; 6HR MAX TEMP:  32;

PINEDALE       FAIR      23  21  93 W5        30.16R WCI  17
DUBOIS         FAIR      25  21  86 NW10      30.13R WCI  15
LANDER         FAIR      35  26  69 W14       30.11R WCI  26
6HR MIN TEMP:  34; 6HR MAX TEMP:  39;

RIVERTON       FAIR      34  32  92 W10       30.12R WCI  26
6HR MIN TEMP:  33; 6HR MAX TEMP:  38;

CASPER         FAIR      30  29  96 SW7       30.11R WCI  23
6HR MIN TEMP:  30; 6HR MAX TEMP:  36;

DOUGLAS        CLOUDY    38  34  85 NW9       30.09R WCI  31
6HR MIN TEMP:  36; 6HR MAX TEMP:  39;


$$
WYZ021-027>030-104>119-241300-
SOUTHERN WYOMING

CITY           SKY/WX    TMP DP  RH WIND       PRES   REMARKS
EVANSTON       FAIR      27  23  85 SW7       30.18R WCI  19
6HR MIN TEMP:  27; 6HR MAX TEMP:  30;

FORT BRIDGER   FAIR      32  31  96 W13       30.18R WCI  22
ROCK SPRINGS   FAIR      34  29  82 W3        30.15R
6HR MIN TEMP:  34; 6HR MAX TEMP:  38;

DIXON            N/A     36  29  76 N8        30.12R WCI  29
RAWLINS        CLOUDY    35  28  75 N9        30.11R WCI  28
6HR MIN TEMP:  33; 6HR MAX TEMP:  36;

SARATOGA       CLOUDY    34  30  86 NW10      30.09R WCI  26
LARAMIE        CLOUDY    30  29  96 N13       30.04R WCI  20
6HR MIN TEMP:  30; 6HR MAX TEMP:  33; 6HR PCP:  0.01;

CHEYENNE       MIX PCPN  33  31  92 N17G28    30.01R WCI  22
6HR MIN TEMP:  33; 6HR MAX TEMP:  35; 6HR PCP: TRACE;

TORRINGTON     FAIR      40  36  86 NW8       30.02R WCI  34
6HR MIN TEMP:  40; 6HR MAX TEMP:  42;

PINE BLUFFS    CLOUDY    36  34  93 N23G30    29.98R WCI  24

$$



USA.gov is the U.S. government's official web portal to all federal, state and local government web resources and services.